User: anonymous   Login
Location: Theydon Bois
(51.6750°N, 0.1050°E)
Time: 00:28:31
(UTC+01:00)
Language:

ATLAS 2AS CENTAUR R/B - Orbit

View from above orbital plane
View from above orbital plane
View from above satellite
View from above satellite

Ground track
Ground track

The orbit data is extracted from the following two-line orbital elements,

1 28096U 03054B   18206.87110358 0.00000000  00000-0  00000-0 0    00
2 28096  63.6731 117.4211 0261551 251.0560 108.9440 13.40842558    05
Epoch (UTC): 25 July 2018 20:54:23
Eccentricity: 0.0261551
inclination: 63.6731°
perigee height: 910 km
apogee height: 1302 km
right ascension of ascending node: 117.4211°
argument of perigee: 251.0560°
revolutions per day: 13.40842558
mean anomaly at epoch: 108.9440°
orbit number at epoch: 0

The dashed part of the orbit path shows where the satellite is in the earth's shadow,  

DLR